Location: Bamobli
(6.6379°N, 10.9396°W)
Time: 21:30:14
(UTC+00:00)

Envisat - Pass Details

Date: 08 March 2021
Orbit: 764 x 766 km, 98.1° (Epoch: 16 April)

Event Time Altitude Azimuth Distance (km) Brightness Sun altitude
Rises 05:23:57 0° 30° (NNE) 3,217 6.6 -23.0°
Reaches altitude 10° 05:26:30 10° 41° (NE) 2,292 5.9 -22.4°
Maximum altitude 05:30:53 30° 101° (E) 1,343 4.9 -21.3°
Drops below altitude 10° 05:35:16 10° 161° (SSE) 2,295 5.7 -20.2°
Sets 05:37:49 0° 172° (S) 3,221 6.4 -19.6°
